#datetime,building,power
2023-11-30T00:00:00,pth,8.40
2023-11-30T00:02:00,pth,4.80
2023-11-30T00:04:00,pth,2.40
2023-11-30T00:06:00,pth,6.00
2023-11-30T00:08:00,pth,8.40
2023-11-30T00:10:00,pth,3.60
2023-11-30T00:12:00,pth,2.40
2023-11-30T00:14:00,pth,7.20
2023-11-30T00:16:00,pth,7.20
2023-11-30T00:18:00,pth,3.60
2023-11-30T00:20:00,pth,2.40
2023-11-30T00:22:00,pth,8.40
2023-11-30T00:24:00,pth,7.20
2023-11-30T00:25:00,pth,1.20
2023-11-30T00:27:00,pth,2.40
2023-11-30T00:29:00,pth,3.60
2023-11-30T00:30:00,pth,1.20
2023-11-30T00:32:00,pth,3.60
2023-11-30T00:34:00,pth,2.40
2023-11-30T00:36:00,pth,3.60
2023-11-30T00:38:00,pth,2.40
2023-11-30T00:40:00,pth,2.40
2023-11-30T00:41:00,pth,2.40
2023-11-30T00:43:00,pth,2.40
2023-11-30T00:45:00,pth,2.40
2023-11-30T00:46:00,pth,2.40
2023-11-30T00:48:00,pth,2.40
2023-11-30T00:49:00,pth,1.20
2023-11-30T00:51:00,pth,2.40
2023-11-30T00:52:00,pth,1.20
2023-11-30T00:54:00,pth,2.40
2023-11-30T00:55:00,pth,1.20
2023-11-30T00:57:00,pth,2.40
2023-11-30T00:59:00,pth,3.60
2023-11-30T01:00:00,pth,1.20
2023-11-30T01:02:00,pth,2.40
2023-11-30T01:03:00,pth,1.20
2023-11-30T01:05:00,pth,2.40
2023-11-30T01:07:00,pth,3.60
2023-11-30T01:09:00,pth,2.40
2023-11-30T01:11:00,pth,2.40
2023-11-30T01:13:00,pth,2.40
2023-11-30T01:14:00,pth,2.40
2023-11-30T01:16:00,pth,2.40
2023-11-30T01:18:00,pth,3.60
2023-11-30T01:19:00,pth,1.20
2023-11-30T01:21:00,pth,2.40
2023-11-30T01:22:00,pth,1.20
2023-11-30T01:24:00,pth,3.60
2023-11-30T01:25:00,pth,1.20
2023-11-30T01:27:00,pth,2.40
2023-11-30T01:29:00,pth,3.60
2023-11-30T01:31:00,pth,2.40
2023-11-30T01:33:00,pth,2.40
2023-11-30T01:35:00,pth,2.40
2023-11-30T01:37:00,pth,3.60
2023-11-30T01:38:00,pth,1.20
2023-11-30T01:39:00,pth,1.19
2023-11-30T01:41:00,pth,3.60
2023-11-30T01:42:00,pth,1.20
2023-11-30T01:43:00,pth,1.20
2023-11-30T01:45:00,pth,2.40
2023-11-30T01:46:00,pth,1.20
2023-11-30T01:48:00,pth,3.60
2023-11-30T01:50:00,pth,2.40
2023-11-30T01:51:00,pth,1.20
2023-11-30T01:53:00,pth,2.40
2023-11-30T01:55:00,pth,2.40
2023-11-30T01:57:00,pth,2.40
2023-11-30T01:59:00,pth,3.60
2023-11-30T02:01:00,pth,2.40
2023-11-30T02:03:00,pth,2.40
2023-11-30T02:04:00,pth,1.20
2023-11-30T02:06:00,pth,2.40
2023-11-30T02:07:00,pth,1.20
2023-11-30T02:09:00,pth,2.40
2023-11-30T02:10:00,pth,1.20
2023-11-30T02:12:00,pth,2.40
2023-11-30T02:13:00,pth,1.20
2023-11-30T02:15:00,pth,2.40
2023-11-30T02:16:00,pth,1.20
2023-11-30T02:18:00,pth,2.40
2023-11-30T02:20:00,pth,2.40
2023-11-30T02:23:00,pth,3.60
2023-11-30T02:25:00,pth,2.40
2023-11-30T02:27:00,pth,1.19
2023-11-30T02:29:00,pth,2.40
2023-11-30T02:31:00,pth,2.40
2023-11-30T02:32:00,pth,1.20
2023-11-30T02:34:00,pth,3.60
2023-11-30T02:35:00,pth,1.20
2023-11-30T02:37:00,pth,2.40
2023-11-30T02:38:00,pth,1.20
2023-11-30T02:40:00,pth,2.40
2023-11-30T02:41:00,pth,1.20
2023-11-30T02:43:00,pth,2.40
2023-11-30T02:44:00,pth,1.20
2023-11-30T02:46:00,pth,2.40
2023-11-30T02:48:00,pth,2.40
2023-11-30T02:50:00,pth,2.40
2023-11-30T02:52:00,pth,2.40
2023-11-30T02:54:00,pth,2.40
2023-11-30T02:56:00,pth,2.40
2023-11-30T02:58:00,pth,2.40
2023-11-30T02:59:00,pth,1.20
2023-11-30T03:01:00,pth,1.20
2023-11-30T03:03:00,pth,2.40
2023-11-30T03:05:00,pth,2.40
2023-11-30T03:06:00,pth,1.20
2023-11-30T03:08:00,pth,2.40
2023-11-30T03:10:00,pth,2.40
2023-11-30T03:12:00,pth,3.60
2023-11-30T03:14:00,pth,2.40
2023-11-30T03:16:00,pth,1.20
2023-11-30T03:17:00,pth,1.19
2023-11-30T03:19:00,pth,2.40
2023-11-30T03:21:00,pth,2.40
2023-11-30T03:23:00,pth,2.40
2023-11-30T03:24:00,pth,1.19
2023-11-30T03:26:00,pth,2.40
2023-11-30T03:28:00,pth,1.20
2023-11-30T03:30:00,pth,2.40
2023-11-30T03:31:00,pth,1.19
2023-11-30T03:33:00,pth,3.60
2023-11-30T03:35:00,pth,2.40
2023-11-30T03:36:00,pth,1.19
2023-11-30T03:38:00,pth,2.40
2023-11-30T03:40:00,pth,2.40
2023-11-30T03:41:00,pth,1.20
2023-11-30T03:43:00,pth,2.40
2023-11-30T03:45:00,pth,1.20
2023-11-30T03:47:00,pth,2.40
2023-11-30T03:49:00,pth,2.40
2023-11-30T03:50:00,pth,1.19
2023-11-30T03:51:00,pth,1.20
2023-11-30T03:52:00,pth,1.20
2023-11-30T03:54:00,pth,2.40
2023-11-30T03:55:00,pth,1.20
2023-11-30T03:57:00,pth,2.40
2023-11-30T03:59:00,pth,2.40
2023-11-30T04:01:00,pth,2.40
2023-11-30T04:02:00,pth,1.19
2023-11-30T04:03:00,pth,1.20
2023-11-30T04:04:00,pth,1.20
2023-11-30T04:06:00,pth,2.40
2023-11-30T04:08:00,pth,2.40
2023-11-30T04:10:00,pth,3.60
2023-11-30T04:12:00,pth,1.20
2023-11-30T04:14:00,pth,2.40
2023-11-30T04:15:00,pth,1.19
2023-11-30T04:17:00,pth,2.40
2023-11-30T04:18:00,pth,1.20
2023-11-30T04:20:00,pth,1.20
2023-11-30T04:22:00,pth,2.40
2023-11-30T04:23:00,pth,1.20
2023-11-30T04:25:00,pth,2.40
2023-11-30T04:26:00,pth,1.20
2023-11-30T04:28:00,pth,1.20
2023-11-30T04:30:00,pth,2.40
2023-11-30T04:31:00,pth,1.20
2023-11-30T04:33:00,pth,2.40
2023-11-30T04:35:00,pth,2.40
2023-11-30T04:37:00,pth,2.40
2023-11-30T04:38:00,pth,1.20
2023-11-30T04:40:00,pth,2.40
2023-11-30T04:41:00,pth,1.20
2023-11-30T04:43:00,pth,1.19
2023-11-30T04:45:00,pth,2.40
2023-11-30T04:46:00,pth,1.20
2023-11-30T04:48:00,pth,2.40
2023-11-30T04:49:00,pth,1.19
2023-11-30T04:50:00,pth,1.20
2023-11-30T04:52:00,pth,2.40
2023-11-30T04:53:00,pth,1.20
2023-11-30T04:55:00,pth,2.40
2023-11-30T04:57:00,pth,2.40
2023-11-30T04:59:00,pth,1.20
2023-11-30T05:01:00,pth,2.40
2023-11-30T05:02:00,pth,1.19
2023-11-30T05:04:00,pth,2.40
2023-11-30T05:06:00,pth,2.40
2023-11-30T05:08:00,pth,2.40
2023-11-30T05:10:00,pth,1.19
2023-11-30T05:12:00,pth,2.40
2023-11-30T05:14:00,pth,2.40
2023-11-30T05:15:00,pth,1.20
2023-11-30T05:17:00,pth,2.40
2023-11-30T05:19:00,pth,2.40
2023-11-30T05:20:00,pth,1.20
2023-11-30T05:22:00,pth,1.20
2023-11-30T05:24:00,pth,2.40
2023-11-30T05:25:00,pth,1.20
2023-11-30T05:27:00,pth,2.40
2023-11-30T05:29:00,pth,2.40
2023-11-30T05:31:00,pth,2.40
2023-11-30T05:33:00,pth,2.40
2023-11-30T05:35:00,pth,2.40
2023-11-30T05:37:00,pth,2.40
2023-11-30T05:38:00,pth,1.20
2023-11-30T05:39:00,pth,1.20
2023-11-30T05:42:00,pth,2.40
2023-11-30T05:43:00,pth,1.19
2023-11-30T05:45:00,pth,2.40
2023-11-30T05:46:00,pth,1.20
2023-11-30T05:48:00,pth,2.40
2023-11-30T05:50:00,pth,1.19
2023-11-30T05:52:00,pth,2.40
2023-11-30T05:54:00,pth,2.40
2023-11-30T05:55:00,pth,1.20
2023-11-30T05:57:00,pth,2.40
2023-11-30T05:59:00,pth,2.40
2023-11-30T06:01:00,pth,2.40
2023-11-30T06:02:00,pth,1.20
2023-11-30T06:04:00,pth,2.40
2023-11-30T06:06:00,pth,2.40
2023-11-30T06:08:00,pth,3.60
2023-11-30T06:09:00,pth,1.20
2023-11-30T06:11:00,pth,2.40
2023-11-30T06:12:00,pth,1.20
2023-11-30T06:14:00,pth,1.20
2023-11-30T06:16:00,pth,2.40
2023-11-30T06:18:00,pth,2.40
2023-11-30T06:20:00,pth,2.40
2023-11-30T06:22:00,pth,2.40
2023-11-30T06:23:00,pth,1.20
2023-11-30T06:25:00,pth,2.40
2023-11-30T06:27:00,pth,2.40
2023-11-30T06:29:00,pth,2.40
2023-11-30T06:30:00,pth,1.20
2023-11-30T06:31:00,pth,1.20
2023-11-30T06:33:00,pth,2.40
2023-11-30T06:35:00,pth,2.40
2023-11-30T06:37:00,pth,2.40
2023-11-30T06:39:00,pth,2.40
2023-11-30T06:42:00,pth,3.60
2023-11-30T06:44:00,pth,2.40
2023-11-30T06:46:00,pth,1.20
2023-11-30T06:47:00,pth,2.40
2023-11-30T06:49:00,pth,2.40
2023-11-30T06:51:00,pth,2.40
2023-11-30T06:53:00,pth,2.40
2023-11-30T06:54:00,pth,1.20
2023-11-30T06:55:00,pth,1.20
2023-11-30T06:56:00,pth,1.20
2023-11-30T06:58:00,pth,2.40
2023-11-30T07:00:00,pth,2.40
2023-11-30T07:01:00,pth,1.20
2023-11-30T07:03:00,pth,2.40
2023-11-30T07:04:00,pth,1.20
2023-11-30T07:05:00,pth,1.19
2023-11-30T07:07:00,pth,2.40
2023-11-30T07:08:00,pth,1.20
2023-11-30T07:10:00,pth,2.40
2023-11-30T07:12:00,pth,2.40
2023-11-30T07:13:00,pth,1.20
2023-11-30T07:15:00,pth,2.40
2023-11-30T07:16:00,pth,1.20
2023-11-30T07:17:00,pth,1.20
2023-11-30T07:19:00,pth,2.40
2023-11-30T07:20:00,pth,1.20
2023-11-30T07:22:00,pth,1.20
2023-11-30T07:24:00,pth,2.40
2023-11-30T07:25:00,pth,2.40
2023-11-30T07:26:00,pth,1.20
2023-11-30T07:28:00,pth,2.40
2023-11-30T07:29:00,pth,1.20
2023-11-30T07:31:00,pth,2.40
2023-11-30T07:32:00,pth,1.20
2023-11-30T07:33:00,pth,1.20
2023-11-30T07:35:00,pth,2.40
2023-11-30T07:36:00,pth,1.19
2023-11-30T07:38:00,pth,2.40
2023-11-30T07:40:00,pth,3.60
2023-11-30T07:42:00,pth,2.40
2023-11-30T07:44:00,pth,1.20
2023-11-30T07:45:00,pth,1.20
2023-11-30T07:47:00,pth,1.20
2023-11-30T07:49:00,pth,1.20
2023-11-30T07:51:00,pth,2.40
2023-11-30T07:53:00,pth,1.20
2023-11-30T07:55:00,pth,2.40
2023-11-30T07:57:00,pth,1.20
2023-11-30T07:58:00,pth,1.20
2023-11-30T08:00:00,pth,2.40
2023-11-30T08:02:00,pth,1.20
2023-11-30T08:04:00,pth,2.40
2023-11-30T08:06:00,pth,2.40
2023-11-30T08:07:00,pth,1.20
2023-11-30T08:09:00,pth,2.40
2023-11-30T08:10:00,pth,1.20
2023-11-30T08:12:00,pth,3.60
2023-11-30T08:14:00,pth,4.80
2023-11-30T08:16:00,pth,3.60
2023-11-30T08:18:00,pth,2.40
2023-11-30T08:20:00,pth,1.20
2023-11-30T08:22:00,pth,2.40
2023-11-30T08:24:00,pth,1.20
2023-11-30T08:25:00,pth,1.20
2023-11-30T08:26:00,pth,1.20
2023-11-30T08:28:00,pth,1.20
2023-11-30T08:30:00,pth,1.20
2023-11-30T08:32:00,pth,2.40
2023-11-30T08:35:00,pth,2.40
2023-11-30T08:37:00,pth,1.20
2023-11-30T08:38:00,pth,1.20
2023-11-30T08:40:00,pth,2.40
2023-11-30T08:41:00,pth,1.20
2023-11-30T08:43:00,pth,1.20
2023-11-30T08:45:00,pth,2.40
2023-11-30T08:47:00,pth,2.40
2023-11-30T08:48:00,pth,2.40
2023-11-30T08:50:00,pth,2.40
2023-11-30T08:52:00,pth,2.40
2023-11-30T08:53:00,pth,1.20
2023-11-30T08:54:00,pth,1.20
2023-11-30T08:56:00,pth,1.20
2023-11-30T08:58:00,pth,1.20
2023-11-30T08:59:00,pth,1.20
2023-11-30T09:01:00,pth,2.40
2023-11-30T09:04:00,pth,2.40
2023-11-30T09:05:00,pth,1.20
2023-11-30T09:07:00,pth,1.20
2023-11-30T09:08:00,pth,1.20
2023-11-30T09:10:00,pth,2.40
2023-11-30T09:11:00,pth,1.20
2023-11-30T09:13:00,pth,1.20
2023-11-30T09:15:00,pth,1.20
2023-11-30T09:16:00,pth,1.20
2023-11-30T09:18:00,pth,1.19
2023-11-30T09:20:00,pth,2.40
2023-11-30T09:22:00,pth,1.20
2023-11-30T09:24:00,pth,1.20
2023-11-30T09:26:00,pth,1.20
2023-11-30T09:29:00,pth,2.40
2023-11-30T09:31:00,pth,1.20
2023-11-30T09:32:00,pth,1.20
2023-11-30T09:34:00,pth,1.20
2023-11-30T09:37:00,pth,1.20
2023-11-30T09:38:00,pth,1.19
2023-11-30T09:40:00,pth,1.20
2023-11-30T09:41:00,pth,1.20
2023-11-30T09:42:00,pth,1.20
2023-11-30T09:44:00,pth,1.20
2023-11-30T09:46:00,pth,2.40
2023-11-30T09:48:00,pth,1.19
2023-11-30T09:50:00,pth,1.20
2023-11-30T09:52:00,pth,1.20
2023-11-30T09:54:00,pth,2.40
2023-11-30T09:56:00,pth,1.20
2023-11-30T09:58:00,pth,1.19
2023-11-30T09:59:00,pth,1.20
2023-11-30T10:01:00,pth,2.40
2023-11-30T10:03:00,pth,1.20
2023-11-30T10:05:00,pth,2.40
2023-11-30T10:07:00,pth,1.20
2023-11-30T10:09:00,pth,2.40
2023-11-30T10:11:00,pth,1.20
2023-11-30T10:13:00,pth,2.40
2023-11-30T10:15:00,pth,1.20
2023-11-30T10:17:00,pth,2.40
2023-11-30T10:19:00,pth,1.20
2023-11-30T10:21:00,pth,2.40
2023-11-30T10:23:00,pth,1.19
2023-11-30T10:25:00,pth,1.20
2023-11-30T10:27:00,pth,1.20
2023-11-30T10:29:00,pth,2.40
2023-11-30T10:31:00,pth,1.20
2023-11-30T10:33:00,pth,2.40
2023-11-30T10:35:00,pth,2.40
2023-11-30T10:37:00,pth,2.40
2023-11-30T10:38:00,pth,1.19
2023-11-30T10:40:00,pth,1.20
2023-11-30T10:42:00,pth,2.40
2023-11-30T10:44:00,pth,1.20
2023-11-30T10:46:00,pth,1.20
2023-11-30T10:48:00,pth,2.40
2023-11-30T10:50:00,pth,1.20
2023-11-30T10:51:00,pth,1.20
2023-11-30T10:54:00,pth,2.40
2023-11-30T10:55:00,pth,1.20
2023-11-30T10:57:00,pth,1.19
2023-11-30T10:58:00,pth,1.20
2023-11-30T11:00:00,pth,2.40
2023-11-30T11:02:00,pth,2.40
2023-11-30T11:03:00,pth,1.19
2023-11-30T11:05:00,pth,2.40
2023-11-30T11:07:00,pth,2.40
2023-11-30T11:09:00,pth,2.40
2023-11-30T11:10:00,pth,1.20
2023-11-30T11:12:00,pth,3.60
2023-11-30T11:13:00,pth,1.20
2023-11-30T11:15:00,pth,1.19
2023-11-30T11:17:00,pth,3.60
2023-11-30T11:19:00,pth,1.20
2023-11-30T11:20:00,pth,1.20
2023-11-30T11:21:00,pth,1.20
2023-11-30T11:23:00,pth,1.19
2023-11-30T11:24:00,pth,1.20
2023-11-30T11:26:00,pth,2.40
2023-11-30T11:27:00,pth,1.20
2023-11-30T11:29:00,pth,2.40
2023-11-30T11:30:00,pth,1.20
2023-11-30T11:32:00,pth,1.20
2023-11-30T11:33:00,pth,1.20
2023-11-30T11:35:00,pth,1.20
2023-11-30T11:37:00,pth,2.40
2023-11-30T11:39:00,pth,1.20
2023-11-30T11:40:00,pth,1.20
2023-11-30T11:42:00,pth,1.20
2023-11-30T11:45:00,pth,2.40
2023-11-30T11:47:00,pth,1.19
2023-11-30T11:48:00,pth,1.20
2023-11-30T11:51:00,pth,1.20
2023-11-30T11:53:00,pth,2.40
2023-11-30T11:55:00,pth,1.20
2023-11-30T11:57:00,pth,1.20
2023-11-30T11:59:00,pth,1.19
2023-11-30T12:00:00,pth,1.20
2023-11-30T12:02:00,pth,2.40
2023-11-30T12:04:00,pth,1.20
2023-11-30T12:06:00,pth,1.20
2023-11-30T12:08:00,pth,2.40
2023-11-30T12:10:00,pth,1.20
2023-11-30T12:12:00,pth,2.40
2023-11-30T12:13:00,pth,2.40
2023-11-30T12:15:00,pth,1.20
2023-11-30T12:16:00,pth,1.20
2023-11-30T12:18:00,pth,2.40
2023-11-30T12:21:00,pth,2.40
2023-11-30T12:22:00,pth,1.20
2023-11-30T12:24:00,pth,2.40
2023-11-30T12:26:00,pth,1.20
2023-11-30T12:27:00,pth,1.20
2023-11-30T12:29:00,pth,1.20
2023-11-30T12:31:00,pth,2.40
2023-11-30T12:33:00,pth,1.20
2023-11-30T12:35:00,pth,2.40
2023-11-30T12:37:00,pth,1.20
2023-11-30T12:39:00,pth,2.40
2023-11-30T12:41:00,pth,2.40
2023-11-30T12:42:00,pth,1.20
2023-11-30T12:44:00,pth,3.60
2023-11-30T12:45:00,pth,1.20
2023-11-30T12:47:00,pth,1.20
2023-11-30T12:49:00,pth,2.40
2023-11-30T12:50:00,pth,1.19
2023-11-30T12:52:00,pth,1.20
2023-11-30T12:53:00,pth,1.20
2023-11-30T12:55:00,pth,1.20
2023-11-30T12:56:00,pth,2.40
2023-11-30T12:57:00,pth,7.20
2023-11-30T12:59:00,pth,13.20
2023-11-30T13:01:00,pth,15.60
2023-11-30T13:02:00,pth,7.20
2023-11-30T13:04:00,pth,12.00
2023-11-30T13:05:00,pth,7.20
2023-11-30T13:07:00,pth,12.00
2023-11-30T13:08:00,pth,7.20
2023-11-30T13:10:00,pth,12.00
2023-11-30T13:12:00,pth,13.20
2023-11-30T13:14:00,pth,12.00
2023-11-30T13:16:00,pth,13.20
2023-11-30T13:17:00,pth,7.20
2023-11-30T13:19:00,pth,12.00
2023-11-30T13:21:00,pth,13.20
2023-11-30T13:23:00,pth,13.20
2023-11-30T13:24:00,pth,7.20
2023-11-30T13:26:00,pth,13.20
2023-11-30T13:28:00,pth,12.00
2023-11-30T13:29:00,pth,7.20
2023-11-30T13:31:00,pth,13.20
2023-11-30T13:33:00,pth,13.20
2023-11-30T13:34:00,pth,6.00
2023-11-30T13:36:00,pth,13.21
2023-11-30T13:38:00,pth,13.20
2023-11-30T13:39:00,pth,6.00
2023-11-30T13:40:00,pth,7.20
2023-11-30T13:41:00,pth,6.00
2023-11-30T13:43:00,pth,13.21
2023-11-30T13:45:00,pth,9.59
2023-11-30T13:46:00,pth,2.40
2023-11-30T13:48:00,pth,13.20
2023-11-30T13:49:00,pth,6.00
2023-11-30T13:51:00,pth,13.21
2023-11-30T13:53:00,pth,7.20
2023-11-30T13:55:00,pth,8.40
2023-11-30T13:56:00,pth,1.19
2023-11-30T13:57:00,pth,1.20
2023-11-30T13:59:00,pth,1.20
2023-11-30T14:00:00,pth,1.20
2023-11-30T14:02:00,pth,2.40
2023-11-30T14:05:00,pth,2.40
2023-11-30T14:06:00,pth,1.20
2023-11-30T14:08:00,pth,1.20
2023-11-30T14:09:00,pth,1.20
2023-11-30T14:10:00,pth,1.20
2023-11-30T14:12:00,pth,1.19
2023-11-30T14:14:00,pth,2.40
2023-11-30T14:16:00,pth,3.60
2023-11-30T14:18:00,pth,1.20
2023-11-30T14:20:00,pth,2.40
2023-11-30T14:23:00,pth,2.40
2023-11-30T14:25:00,pth,1.20
2023-11-30T14:26:00,pth,1.20
2023-11-30T14:29:00,pth,1.19
2023-11-30T14:31:00,pth,2.40
2023-11-30T14:34:00,pth,2.40
2023-11-30T14:37:00,pth,2.40
2023-11-30T14:39:00,pth,1.20
2023-11-30T14:40:00,pth,1.20
2023-11-30T14:42:00,pth,1.20
2023-11-30T14:43:00,pth,1.20
2023-11-30T14:45:00,pth,1.20
2023-11-30T14:46:00,pth,1.19
2023-11-30T14:48:00,pth,1.20
2023-11-30T14:50:00,pth,1.20
2023-11-30T14:52:00,pth,1.20
2023-11-30T14:53:00,pth,1.20
2023-11-30T14:56:00,pth,2.40
2023-11-30T14:58:00,pth,1.19
2023-11-30T15:01:00,pth,2.40
2023-11-30T15:02:00,pth,1.20
2023-11-30T15:04:00,pth,1.20
2023-11-30T15:05:00,pth,2.40
2023-11-30T15:07:00,pth,3.60
2023-11-30T15:09:00,pth,2.40
2023-11-30T15:11:00,pth,2.40
2023-11-30T15:13:00,pth,1.20
2023-11-30T15:14:00,pth,1.20
2023-11-30T15:16:00,pth,1.20
2023-11-30T15:18:00,pth,2.40
2023-11-30T15:21:00,pth,2.40
2023-11-30T15:22:00,pth,1.20
2023-11-30T15:24:00,pth,1.20
2023-11-30T15:25:00,pth,1.20
2023-11-30T15:27:00,pth,1.20
2023-11-30T15:29:00,pth,2.40
2023-11-30T15:30:00,pth,1.20
2023-11-30T15:32:00,pth,2.40
2023-11-30T15:33:00,pth,1.20
2023-11-30T15:35:00,pth,2.40
2023-11-30T15:37:00,pth,2.40
2023-11-30T15:39:00,pth,2.40
2023-11-30T15:41:00,pth,1.19
2023-11-30T15:42:00,pth,2.40
2023-11-30T15:44:00,pth,2.40
2023-11-30T15:46:00,pth,2.40
2023-11-30T15:47:00,pth,1.20
2023-11-30T15:49:00,pth,2.40
2023-11-30T15:50:00,pth,1.20
2023-11-30T15:52:00,pth,2.40
2023-11-30T15:53:00,pth,1.19
2023-11-30T15:55:00,pth,2.40
2023-11-30T15:57:00,pth,2.40
2023-11-30T15:59:00,pth,2.40
2023-11-30T16:01:00,pth,2.40
2023-11-30T16:02:00,pth,1.20
2023-11-30T16:04:00,pth,2.40
2023-11-30T16:05:00,pth,1.19
2023-11-30T16:07:00,pth,2.40
2023-11-30T16:09:00,pth,2.40
2023-11-30T16:11:00,pth,2.40
2023-11-30T16:13:00,pth,2.40
2023-11-30T16:15:00,pth,2.40
2023-11-30T16:17:00,pth,2.40
2023-11-30T16:19:00,pth,3.60
2023-11-30T16:21:00,pth,2.40
2023-11-30T16:23:00,pth,2.40
2023-11-30T16:25:00,pth,3.60
2023-11-30T16:27:00,pth,2.40
2023-11-30T16:29:00,pth,2.40
2023-11-30T16:31:00,pth,2.40
2023-11-30T16:33:00,pth,2.40
2023-11-30T16:34:00,pth,1.19
2023-11-30T16:36:00,pth,3.60
2023-11-30T16:37:00,pth,1.20
2023-11-30T16:39:00,pth,3.60
2023-11-30T16:41:00,pth,2.40
2023-11-30T16:43:00,pth,2.40
2023-11-30T16:45:00,pth,2.40
2023-11-30T16:46:00,pth,1.20
2023-11-30T16:48:00,pth,2.40
2023-11-30T16:50:00,pth,2.40
2023-11-30T16:51:00,pth,1.19
2023-11-30T16:53:00,pth,2.40
2023-11-30T16:54:00,pth,1.20
2023-11-30T16:56:00,pth,2.40
2023-11-30T16:58:00,pth,2.40
2023-11-30T16:59:00,pth,1.20
2023-11-30T17:01:00,pth,2.40
2023-11-30T17:02:00,pth,1.20
2023-11-30T17:04:00,pth,2.40
2023-11-30T17:06:00,pth,3.60
2023-11-30T17:07:00,pth,1.20
2023-11-30T17:09:00,pth,2.40
2023-11-30T17:11:00,pth,1.20
2023-11-30T17:13:00,pth,2.40
2023-11-30T17:14:00,pth,1.20
2023-11-30T17:15:00,pth,1.20
2023-11-30T17:16:00,pth,1.19
2023-11-30T17:18:00,pth,1.20
2023-11-30T17:20:00,pth,3.60
2023-11-30T17:21:00,pth,1.20
2023-11-30T17:23:00,pth,2.40
2023-11-30T17:24:00,pth,1.20
2023-11-30T17:26:00,pth,1.20
2023-11-30T17:28:00,pth,2.40
2023-11-30T17:29:00,pth,2.40
2023-11-30T17:31:00,pth,10.80
2023-11-30T17:33:00,pth,13.20
2023-11-30T17:34:00,pth,7.20
2023-11-30T17:36:00,pth,13.20
2023-11-30T17:37:00,pth,7.20
2023-11-30T17:39:00,pth,9.60
2023-11-30T17:40:00,pth,4.80
2023-11-30T17:42:00,pth,14.40
2023-11-30T17:44:00,pth,7.20
2023-11-30T17:46:00,pth,12.00
2023-11-30T17:48:00,pth,9.60
2023-11-30T17:50:00,pth,10.80
2023-11-30T17:51:00,pth,3.60
2023-11-30T17:53:00,pth,14.40
2023-11-30T17:54:00,pth,1.20
2023-11-30T17:56:00,pth,12.00
2023-11-30T17:58:00,pth,7.20
2023-11-30T18:00:00,pth,14.40
2023-11-30T18:02:00,pth,7.20
2023-11-30T18:04:00,pth,13.21
2023-11-30T18:06:00,pth,7.20
2023-11-30T18:08:00,pth,10.80
2023-11-30T18:10:00,pth,8.40
2023-11-30T18:11:00,pth,6.00
2023-11-30T18:13:00,pth,7.20
2023-11-30T18:14:00,pth,7.20
2023-11-30T18:16:00,pth,8.40
2023-11-30T18:18:00,pth,12.00
2023-11-30T18:19:00,pth,4.80
2023-11-30T18:21:00,pth,8.40
2023-11-30T18:23:00,pth,9.60
2023-11-30T18:25:00,pth,10.80
2023-11-30T18:27:00,pth,7.20
2023-11-30T18:29:00,pth,2.40
2023-11-30T18:31:00,pth,2.40
2023-11-30T18:32:00,pth,1.19
2023-11-30T18:34:00,pth,2.40
2023-11-30T18:36:00,pth,2.40
2023-11-30T18:38:00,pth,2.40
2023-11-30T18:40:00,pth,2.40
2023-11-30T18:42:00,pth,3.60
2023-11-30T18:44:00,pth,2.40
2023-11-30T18:46:00,pth,2.40
2023-11-30T18:48:00,pth,1.20
2023-11-30T18:49:00,pth,1.20
2023-11-30T18:51:00,pth,2.40
2023-11-30T18:52:00,pth,2.40
2023-11-30T18:54:00,pth,2.40
2023-11-30T18:55:00,pth,1.20
2023-11-30T18:57:00,pth,2.40
2023-11-30T18:59:00,pth,2.40
2023-11-30T19:01:00,pth,2.40
2023-11-30T19:03:00,pth,2.40
2023-11-30T19:05:00,pth,2.40
2023-11-30T19:07:00,pth,2.40
2023-11-30T19:09:00,pth,2.40
2023-11-30T19:11:00,pth,2.40
2023-11-30T19:13:00,pth,2.40
2023-11-30T19:15:00,pth,2.40
2023-11-30T19:17:00,pth,2.40
2023-11-30T19:19:00,pth,2.40
2023-11-30T19:20:00,pth,1.20
2023-11-30T19:21:00,pth,1.19
2023-11-30T19:23:00,pth,2.40
2023-11-30T19:25:00,pth,2.40
2023-11-30T19:26:00,pth,1.20
2023-11-30T19:28:00,pth,2.40
2023-11-30T19:30:00,pth,2.40
2023-11-30T19:32:00,pth,3.60
2023-11-30T19:34:00,pth,2.40
2023-11-30T19:36:00,pth,3.60
2023-11-30T19:38:00,pth,2.40
2023-11-30T19:39:00,pth,1.20
2023-11-30T19:41:00,pth,3.60
2023-11-30T19:43:00,pth,1.20
2023-11-30T19:45:00,pth,2.40
2023-11-30T19:46:00,pth,1.20
2023-11-30T19:48:00,pth,2.40
2023-11-30T19:50:00,pth,3.60
2023-11-30T19:51:00,pth,1.20
2023-11-30T19:53:00,pth,2.40
2023-11-30T19:54:00,pth,1.20
2023-11-30T19:55:00,pth,1.19
2023-11-30T19:57:00,pth,2.40
2023-11-30T19:59:00,pth,3.60
2023-11-30T20:00:00,pth,1.20
2023-11-30T20:02:00,pth,2.40
2023-11-30T20:03:00,pth,2.40
2023-11-30T20:05:00,pth,2.40
2023-11-30T20:07:00,pth,2.40
2023-11-30T20:08:00,pth,1.20
2023-11-30T20:10:00,pth,3.60
2023-11-30T20:11:00,pth,1.19
2023-11-30T20:13:00,pth,2.40
2023-11-30T20:14:00,pth,2.40
2023-11-30T20:16:00,pth,2.40
2023-11-30T20:17:00,pth,1.20
2023-11-30T20:19:00,pth,2.40
2023-11-30T20:21:00,pth,2.40
2023-11-30T20:22:00,pth,1.20
2023-11-30T20:24:00,pth,2.40
2023-11-30T20:25:00,pth,1.20
2023-11-30T20:27:00,pth,3.60
2023-11-30T20:29:00,pth,2.40
2023-11-30T20:30:00,pth,1.20
2023-11-30T20:32:00,pth,2.40
2023-11-30T20:34:00,pth,2.40
2023-11-30T20:36:00,pth,2.40
2023-11-30T20:38:00,pth,2.40
2023-11-30T20:39:00,pth,1.20
2023-11-30T20:41:00,pth,3.60
2023-11-30T20:42:00,pth,1.20
2023-11-30T20:44:00,pth,2.40
2023-11-30T20:45:00,pth,2.40
2023-11-30T20:46:00,pth,1.20
2023-11-30T20:48:00,pth,2.40
2023-11-30T20:49:00,pth,1.20
2023-11-30T20:51:00,pth,3.60
2023-11-30T20:52:00,pth,1.20
2023-11-30T20:54:00,pth,3.60
2023-11-30T20:56:00,pth,2.40
2023-11-30T20:57:00,pth,2.40
2023-11-30T20:58:00,pth,1.20
2023-11-30T21:00:00,pth,2.40
2023-11-30T21:02:00,pth,2.40
2023-11-30T21:03:00,pth,1.20
2023-11-30T21:04:00,pth,1.20
2023-11-30T21:06:00,pth,3.60
2023-11-30T21:08:00,pth,2.40
2023-11-30T21:09:00,pth,1.20
2023-11-30T21:11:00,pth,2.40
2023-11-30T21:12:00,pth,1.19
2023-11-30T21:14:00,pth,3.60
2023-11-30T21:16:00,pth,2.40
2023-11-30T21:17:00,pth,1.19
2023-11-30T21:19:00,pth,2.40
2023-11-30T21:21:00,pth,3.60
2023-11-30T21:23:00,pth,2.40
2023-11-30T21:25:00,pth,3.60
2023-11-30T21:26:00,pth,1.20
2023-11-30T21:28:00,pth,4.80
2023-11-30T21:29:00,pth,3.60
2023-11-30T21:30:00,pth,2.40
2023-11-30T21:32:00,pth,2.40
2023-11-30T21:34:00,pth,2.40
2023-11-30T21:35:00,pth,2.40
2023-11-30T21:37:00,pth,2.40
2023-11-30T21:38:00,pth,1.20
2023-11-30T21:40:00,pth,3.60
2023-11-30T21:41:00,pth,1.20
2023-11-30T21:43:00,pth,2.40
2023-11-30T21:44:00,pth,1.20
2023-11-30T21:45:00,pth,2.40
2023-11-30T21:47:00,pth,2.40
2023-11-30T21:48:00,pth,2.40
2023-11-30T21:49:00,pth,1.20
2023-11-30T21:50:00,pth,1.19
2023-11-30T21:52:00,pth,3.60
2023-11-30T21:53:00,pth,1.20
2023-11-30T21:54:00,pth,1.20
2023-11-30T21:56:00,pth,2.40
2023-11-30T21:58:00,pth,2.40
2023-11-30T22:00:00,pth,2.40
2023-11-30T22:01:00,pth,2.40
2023-11-30T22:02:00,pth,1.20
2023-11-30T22:04:00,pth,2.40
2023-11-30T22:05:00,pth,1.20
2023-11-30T22:06:00,pth,1.20
2023-11-30T22:08:00,pth,2.40
2023-11-30T22:10:00,pth,2.40
2023-11-30T22:11:00,pth,1.20
2023-11-30T22:12:00,pth,2.40
2023-11-30T22:14:00,pth,2.40
2023-11-30T22:15:00,pth,1.20
2023-11-30T22:17:00,pth,3.60
2023-11-30T22:19:00,pth,2.40
2023-11-30T22:21:00,pth,2.40
2023-11-30T22:23:00,pth,2.40
2023-11-30T22:25:00,pth,2.40
2023-11-30T22:27:00,pth,3.60
2023-11-30T22:29:00,pth,2.40
2023-11-30T22:30:00,pth,1.20
2023-11-30T22:31:00,pth,1.20
2023-11-30T22:33:00,pth,2.40
2023-11-30T22:35:00,pth,2.40
2023-11-30T22:37:00,pth,2.40
2023-11-30T22:39:00,pth,3.60
2023-11-30T22:40:00,pth,1.19
2023-11-30T22:42:00,pth,2.40
2023-11-30T22:44:00,pth,2.40
2023-11-30T22:45:00,pth,2.40
2023-11-30T22:47:00,pth,2.40
2023-11-30T22:49:00,pth,2.40
2023-11-30T22:51:00,pth,2.40
2023-11-30T22:53:00,pth,2.40
2023-11-30T22:55:00,pth,3.60
2023-11-30T22:56:00,pth,1.20
2023-11-30T22:57:00,pth,1.19
2023-11-30T22:59:00,pth,3.60
2023-11-30T23:01:00,pth,2.40
2023-11-30T23:03:00,pth,3.60
2023-11-30T23:04:00,pth,1.20
